Time,TemperatureF,DewpointF,PressureIn,WindDirection,WindDirectionDegrees,WindSpeedMPH,WindSpeedGustMPH,Humidity,HourlyPrecipIn,Conditions,Clouds,dailyrainin,SoftwareType,DateUTC
2013-09-15 00:01:00,61.3,49.5,29.41,SW,221,0.0,0.0,65,0.00,,---,0.00,VWS V14.01,2013-09-15 07:01:00,
2013-09-15 00:06:00,61.0,49.2,29.41,SW,221,0.0,0.0,65,0.00,,---,0.00,VWS V14.01,2013-09-15 07:06:00,
2013-09-15 00:11:00,60.8,49.4,29.41,SW,221,0.0,0.0,66,0.00,,---,0.00,VWS V14.01,2013-09-15 07:11:00,
2013-09-15 00:16:00,60.8,49.4,29.41,WNW,286,0.0,0.0,66,0.00,,---,0.00,VWS V14.01,2013-09-15 07:16:00,
2013-09-15 00:21:00,60.8,49.8,29.41,West,266,0.0,0.0,67,0.00,,---,0.00,VWS V14.01,2013-09-15 07:21:00,
2013-09-15 00:26:00,60.6,50.8,29.41,WNW,285,5.4,6.3,70,0.00,,---,0.00,VWS V14.01,2013-09-15 07:26:00,
2013-09-15 00:31:00,60.6,51.2,29.41,WNW,289,4.0,4.0,71,0.00,,---,0.00,VWS V14.01,2013-09-15 07:31:00,
2013-09-15 00:36:00,60.8,51.3,29.41,WNW,284,5.8,5.8,71,0.00,,---,0.00,VWS V14.01,2013-09-15 07:36:00,
2013-09-15 00:41:00,60.8,51.7,29.41,WNW,284,4.9,6.3,72,0.00,,---,0.00,VWS V14.01,2013-09-15 07:41:00,
2013-09-15 00:46:00,60.8,51.7,29.41,WSW,258,5.4,5.4,72,0.00,,---,0.00,VWS V14.01,2013-09-15 07:46:00,
2013-09-15 00:51:00,60.8,51.7,29.41,WNW,291,5.4,5.4,72,0.00,,---,0.00,VWS V14.01,2013-09-15 07:51:00,
2013-09-15 00:56:00,61.0,52.3,29.41,WNW,282,4.9,4.9,73,0.00,,---,0.00,VWS V14.01,2013-09-15 07:56:00,
2013-09-15 01:01:00,61.2,52.5,29.41,West,269,5.8,5.8,73,0.00,,---,0.00,VWS V14.01,2013-09-15 08:01:00,
2013-09-15 01:06:00,61.2,52.5,29.41,West,280,3.1,4.9,73,0.00,,---,0.00,VWS V14.01,2013-09-15 08:06:00,
2013-09-15 01:11:00,61.2,52.5,29.41,WSW,257,4.0,4.0,73,0.00,,---,0.00,VWS V14.01,2013-09-15 08:11:00,
2013-09-15 01:16:00,61.2,52.5,29.41,West,276,4.0,4.9,73,0.00,,---,0.00,VWS V14.01,2013-09-15 08:16:00,
2013-09-15 01:21:00,61.5,52.8,29.41,West,279,5.8,5.8,73,0.00,,---,0.00,VWS V14.01,2013-09-15 08:21:00,
2013-09-15 01:26:00,61.5,52.8,29.41,WNW,290,6.3,6.3,73,0.00,,---,0.00,VWS V14.01,2013-09-15 08:26:00,
2013-09-15 01:31:00,61.3,51.9,29.41,WNW,284,8.1,8.1,71,0.00,,---,0.00,VWS V14.01,2013-09-15 08:31:00,
2013-09-15 01:36:00,61.0,50.8,29.41,WSW,248,4.0,4.0,69,0.00,,---,0.00,VWS V14.01,2013-09-15 08:36:00,
2013-09-15 01:42:00,61.0,50.0,29.41,WNW,285,3.1,3.1,67,0.00,,---,0.00,VWS V14.01,2013-09-15 08:42:00,
2013-09-15 01:47:00,61.3,50.3,29.41,WNW,285,4.0,4.0,67,0.00,,---,0.00,VWS V14.01,2013-09-15 08:47:00,
2013-09-15 01:52:00,61.3,49.9,29.41,WNW,286,5.4,5.4,66,0.00,,---,0.00,VWS V14.01,2013-09-15 08:52:00,
2013-09-15 01:57:00,61.3,49.5,29.41,West,281,4.0,4.0,65,0.00,,---,0.00,VWS V14.01,2013-09-15 08:57:00,
2013-09-15 02:02:00,61.3,49.5,29.41,WNW,283,4.9,4.9,65,0.00,,---,0.00,VWS V14.01,2013-09-15 09:02:00,
2013-09-15 02:07:00,61.2,47.2,29.41,WNW,286,3.6,3.6,60,0.00,,---,0.00,VWS V14.01,2013-09-15 09:07:00,
2013-09-15 02:12:00,61.2,47.2,29.41,WNW,290,5.4,5.4,60,0.00,,---,0.00,VWS V14.01,2013-09-15 09:12:00,
2013-09-15 02:17:00,61.2,46.7,29.41,WNW,287,5.4,5.4,59,0.00,,---,0.00,VWS V14.01,2013-09-15 09:17:00,
2013-09-15 02:22:00,61.0,45.7,29.41,WNW,287,2.7,2.7,57,0.00,,---,0.00,VWS V14.01,2013-09-15 09:22:00,
2013-09-15 02:27:00,61.0,45.7,29.41,WNW,288,4.9,4.9,57,0.00,,---,0.00,VWS V14.01,2013-09-15 09:27:00,
2013-09-15 02:32:00,61.0,45.7,29.41,West,271,5.8,5.8,57,0.00,,---,0.00,VWS V14.01,2013-09-15 09:32:00,
2013-09-15 02:37:00,60.8,43.1,29.41,WNW,287,4.9,4.9,52,0.00,,---,0.00,VWS V14.01,2013-09-15 09:37:00,
2013-09-15 02:42:00,60.8,43.1,29.41,WNW,302,3.6,3.6,52,0.00,,---,0.00,VWS V14.01,2013-09-15 09:42:00,
2013-09-15 02:47:00,60.6,43.4,29.41,WNW,288,4.0,5.4,53,0.00,,---,0.00,VWS V14.01,2013-09-15 09:47:00,
2013-09-15 02:52:00,60.6,43.9,29.41,West,278,5.4,5.4,54,0.00,,---,0.00,VWS V14.01,2013-09-15 09:52:00,
2013-09-15 02:57:00,60.6,44.4,29.41,WNW,284,5.8,5.8,55,0.00,,---,0.00,VWS V14.01,2013-09-15 09:57:00,
2013-09-15 03:02:00,60.6,44.4,29.41,West,280,4.9,4.9,55,0.00,,---,0.00,VWS V14.01,2013-09-15 10:02:00,
2013-09-15 03:07:00,60.4,46.1,29.41,WNW,283,5.4,5.4,59,0.00,,---,0.00,VWS V14.01,2013-09-15 10:07:00,
2013-09-15 03:12:00,60.4,46.9,29.41,West,278,5.8,5.8,61,0.00,,---,0.00,VWS V14.01,2013-09-15 10:12:00,
2013-09-15 03:17:00,60.4,47.8,29.41,WNW,285,4.5,4.5,63,0.00,,---,0.00,VWS V14.01,2013-09-15 10:17:00,
2013-09-15 03:22:00,60.4,48.6,29.41,WNW,287,3.6,3.6,65,0.00,,---,0.00,VWS V14.01,2013-09-15 10:22:00,
2013-09-15 03:27:00,60.4,48.6,29.41,West,278,7.6,7.6,65,0.00,,---,0.00,VWS V14.01,2013-09-15 10:27:00,
2013-09-15 03:32:00,60.4,49.8,29.41,West,278,5.4,5.4,68,0.00,,---,0.00,VWS V14.01,2013-09-15 10:32:00,
2013-09-15 03:37:00,60.6,51.2,29.41,West,276,5.8,5.8,71,0.00,,---,0.00,VWS V14.01,2013-09-15 10:37:00,
2013-09-15 03:42:00,60.6,51.2,29.41,WSW,252,4.0,5.4,71,0.00,,---,0.00,VWS V14.01,2013-09-15 10:42:00,
2013-09-15 03:47:00,60.6,51.2,29.41,WNW,287,7.6,7.6,71,0.00,,---,0.00,VWS V14.01,2013-09-15 10:47:00,
2013-09-15 03:52:00,60.6,51.2,29.41,WNW,288,8.7,8.7,71,0.00,,---,0.00,VWS V14.01,2013-09-15 10:52:00,
2013-09-15 03:57:00,60.4,50.2,29.41,WNW,295,5.4,5.4,69,0.00,,---,0.00,VWS V14.01,2013-09-15 10:57:00,
2013-09-15 04:02:00,60.4,50.2,29.41,WNW,292,5.8,5.8,69,0.00,,---,0.00,VWS V14.01,2013-09-15 11:02:00,
2013-09-15 04:07:00,60.3,50.5,29.41,WSW,240,5.4,5.4,70,0.00,,---,0.00,VWS V14.01,2013-09-15 11:07:00,
2013-09-15 04:12:00,60.3,50.5,29.41,WSW,241,5.8,5.8,70,0.00,,---,0.00,VWS V14.01,2013-09-15 11:12:00,
2013-09-15 04:17:00,59.9,50.5,29.41,West,270,6.3,6.7,71,0.00,,---,0.00,VWS V14.01,2013-09-15 11:17:00,
2013-09-15 04:22:00,60.1,51.0,29.41,WNW,285,5.8,5.8,72,0.00,,---,0.00,VWS V14.01,2013-09-15 11:22:00,
2013-09-15 04:27:00,59.9,50.9,29.41,WSW,252,3.6,3.6,72,0.00,,---,0.00,VWS V14.01,2013-09-15 11:27:00,
2013-09-15 04:32:00,59.9,51.2,29.41,WSW,239,5.4,8.1,73,0.00,,---,0.00,VWS V14.01,2013-09-15 11:32:00,
2013-09-15 04:37:00,59.5,51.3,29.41,WSW,250,6.3,6.3,74,0.00,,---,0.00,VWS V14.01,2013-09-15 11:37:00,
2013-09-15 04:42:00,59.2,50.9,29.41,West,261,5.8,6.3,74,0.00,,---,0.00,VWS V14.01,2013-09-15 11:42:00,
2013-09-15 04:47:00,59.4,51.5,29.41,West,266,5.8,5.8,75,0.00,,---,0.00,VWS V14.01,2013-09-15 11:47:00,
2013-09-15 04:52:00,59.4,51.5,29.41,WSW,246,6.7,6.7,75,0.00,,---,0.00,VWS V14.01,2013-09-15 11:52:00,
2013-09-15 04:57:00,59.0,51.5,29.41,West,261,7.6,7.6,76,0.00,,---,0.00,VWS V14.01,2013-09-15 11:57:00,
2013-09-15 05:02:00,58.8,51.3,29.41,West,259,6.3,6.3,76,0.00,,---,0.00,VWS V14.01,2013-09-15 12:02:00,
2013-09-15 05:07:00,58.8,51.3,29.41,WSW,244,8.1,8.1,76,0.00,,---,0.00,VWS V14.01,2013-09-15 12:07:00,
2013-09-15 05:12:00,58.6,51.5,29.41,West,263,4.0,4.0,77,0.00,,---,0.00,VWS V14.01,2013-09-15 12:12:00,
2013-09-15 05:17:00,58.6,51.5,29.41,WSW,258,4.0,4.0,77,0.00,,---,0.00,VWS V14.01,2013-09-15 12:17:00,
2013-09-15 05:22:00,58.8,51.6,29.41,WNW,283,4.0,4.0,77,0.00,,---,0.00,VWS V14.01,2013-09-15 12:22:00,
2013-09-15 05:27:00,58.8,51.6,29.41,WSW,254,6.3,6.3,77,0.00,,---,0.00,VWS V14.01,2013-09-15 12:27:00,
2013-09-15 05:32:00,58.8,51.6,29.41,WSW,246,5.8,5.8,77,0.00,,---,0.00,VWS V14.01,2013-09-15 12:32:00,
2013-09-15 05:37:00,58.8,51.6,29.41,West,271,4.0,4.0,77,0.00,,---,0.00,VWS V14.01,2013-09-15 12:37:00,
2013-09-15 05:42:00,58.8,52.0,29.41,West,264,8.1,8.1,78,0.00,,---,0.00,VWS V14.01,2013-09-15 12:42:00,
2013-09-15 05:47:00,58.8,52.0,29.41,West,274,4.0,4.0,78,0.00,,---,0.00,VWS V14.01,2013-09-15 12:47:00,
2013-09-15 05:52:00,58.8,52.0,29.44,WSW,243,5.4,6.3,78,0.00,,---,0.00,VWS V14.01,2013-09-15 12:52:00,
2013-09-15 05:57:00,58.6,51.8,29.44,West,270,6.7,6.7,78,0.00,,---,0.00,VWS V14.01,2013-09-15 12:57:00,
2013-09-15 06:02:00,58.6,51.8,29.44,West,267,5.4,5.4,78,0.00,,---,0.00,VWS V14.01,2013-09-15 13:02:00,
2013-09-15 06:07:00,58.5,51.6,29.44,WNW,284,7.6,7.6,78,0.00,,---,0.00,VWS V14.01,2013-09-15 13:07:00,
2013-09-15 06:12:00,58.5,51.6,29.44,WSW,243,5.8,7.6,78,0.00,,---,0.00,VWS V14.01,2013-09-15 13:12:00,
2013-09-15 06:17:00,58.5,51.6,29.44,West,278,5.4,5.4,78,0.00,,---,0.00,VWS V14.01,2013-09-15 13:17:00,
2013-09-15 06:22:00,58.5,51.6,29.44,West,260,5.8,5.8,78,0.00,,---,0.00,VWS V14.01,2013-09-15 13:22:00,
2013-09-15 06:27:00,58.3,51.8,29.44,West,261,5.4,6.3,79,0.00,,---,0.00,VWS V14.01,2013-09-15 13:27:00,
2013-09-15 06:32:00,58.5,52.0,29.44,WSW,252,4.0,5.4,79,0.00,,---,0.00,VWS V14.01,2013-09-15 13:32:00,
2013-09-15 06:37:00,58.5,52.0,29.44,SW,233,8.3,8.3,79,0.00,,---,0.00,VWS V14.01,2013-09-15 13:37:00,
2013-09-15 06:42:00,58.5,52.0,29.44,SW,225,5.4,5.4,79,0.00,,---,0.00,VWS V14.01,2013-09-15 13:42:00,
2013-09-15 06:47:00,58.5,52.0,29.44,WSW,250,5.8,8.3,79,0.00,,---,0.00,VWS V14.01,2013-09-15 13:47:00,
2013-09-15 06:52:00,58.5,52.0,29.44,SW,221,6.7,6.7,79,0.00,,---,0.00,VWS V14.01,2013-09-15 13:52:00,
2013-09-15 06:57:00,58.5,52.0,29.44,SW,220,6.3,6.3,79,0.00,,---,0.00,VWS V14.01,2013-09-15 13:57:00,
2013-09-15 07:02:00,58.5,52.0,29.44,SW,233,5.8,5.8,79,0.00,,---,0.00,VWS V14.01,2013-09-15 14:02:00,
2013-09-15 07:07:00,58.5,52.0,29.44,SW,231,7.6,7.6,79,0.00,,---,0.00,VWS V14.01,2013-09-15 14:07:00,
2013-09-15 07:12:00,58.5,52.0,29.44,WSW,258,5.4,5.4,79,0.00,,---,0.00,VWS V14.01,2013-09-15 14:12:00,
2013-09-15 07:17:00,58.5,52.0,29.44,SW,227,4.0,4.0,79,0.00,,---,0.00,VWS V14.01,2013-09-15 14:17:00,
2013-09-15 07:22:00,58.5,52.0,29.44,SW,221,4.9,4.9,79,0.00,,---,0.00,VWS V14.01,2013-09-15 14:22:00,
2013-09-15 07:27:00,58.5,52.0,29.44,WSW,246,5.8,5.8,79,0.00,,---,0.00,VWS V14.01,2013-09-15 14:27:00,
2013-09-15 07:32:00,58.5,52.0,29.44,SW,217,5.4,5.8,79,0.00,,---,0.00,VWS V14.01,2013-09-15 14:32:00,
2013-09-15 07:37:00,58.6,52.2,29.44,WSW,237,4.9,4.9,79,0.00,,---,0.00,VWS V14.01,2013-09-15 14:37:00,
2013-09-15 07:42:00,58.6,52.2,29.44,WSW,256,5.4,5.4,79,0.00,,---,0.00,VWS V14.01,2013-09-15 14:42:00,
2013-09-15 07:47:00,58.6,52.5,29.44,WSW,241,4.9,4.9,80,0.00,,---,0.00,VWS V14.01,2013-09-15 14:47:00,
2013-09-15 07:52:00,58.6,52.5,29.44,WNW,288,4.9,4.9,80,0.00,,---,0.00,VWS V14.01,2013-09-15 14:52:00,
2013-09-15 07:57:00,59.2,52.7,29.44,West,270,2.7,2.7,79,0.00,,---,0.00,VWS V14.01,2013-09-15 14:57:00,
2013-09-15 08:02:00,59.2,52.7,29.44,WNW,283,3.1,5.8,79,0.00,,---,0.00,VWS V14.01,2013-09-15 15:02:00,
2013-09-15 08:07:00,59.2,52.7,29.44,West,281,6.3,6.3,79,0.00,,---,0.00,VWS V14.01,2013-09-15 15:07:00,
2013-09-15 08:12:00,59.2,52.7,29.44,WNW,289,4.9,5.8,79,0.00,,---,0.00,VWS V14.01,2013-09-15 15:12:00,
2013-09-15 08:17:00,59.4,53.2,29.44,West,278,2.2,4.0,80,0.00,,---,0.00,VWS V14.01,2013-09-15 15:17:00,
2013-09-15 08:22:00,59.5,53.4,29.44,West,269,5.4,5.4,80,0.00,,---,0.00,VWS V14.01,2013-09-15 15:22:00,
2013-09-15 08:27:00,59.7,53.5,29.44,WSW,252,3.6,3.6,80,0.00,,---,0.00,VWS V14.01,2013-09-15 15:27:00,
2013-09-15 08:32:00,59.7,53.5,29.44,WNW,294,0.0,0.0,80,0.00,,---,0.00,VWS V14.01,2013-09-15 15:32:00,
2013-09-15 08:37:00,59.9,53.7,29.44,WNW,284,5.8,5.8,80,0.00,,---,0.00,VWS V14.01,2013-09-15 15:37:00,
2013-09-15 08:42:00,59.7,53.5,29.44,WSW,256,2.7,2.7,80,0.00,,---,0.00,VWS V14.01,2013-09-15 15:42:00,
2013-09-15 08:47:00,59.4,53.2,29.44,West,275,5.4,5.4,80,0.00,,---,0.00,VWS V14.01,2013-09-15 15:47:00,
2013-09-15 08:52:00,59.4,53.2,29.44,West,261,3.1,3.1,80,0.00,,---,0.00,VWS V14.01,2013-09-15 15:52:00,
2013-09-15 08:57:00,59.2,53.0,29.44,WNW,290,6.3,6.3,80,0.00,,---,0.00,VWS V14.01,2013-09-15 15:57:00,
2013-09-15 09:02:00,59.4,53.2,29.44,West,277,7.2,7.2,80,0.00,,---,0.00,VWS V14.01,2013-09-15 16:02:00,
2013-09-15 09:07:00,59.4,53.2,29.44,West,280,4.9,4.9,80,0.00,,---,0.00,VWS V14.01,2013-09-15 16:07:00,
2013-09-15 09:12:00,59.7,53.5,29.44,West,263,5.8,5.8,80,0.00,,---,0.00,VWS V14.01,2013-09-15 16:12:00,
2013-09-15 09:17:00,59.7,53.5,29.44,WNW,285,5.4,5.4,80,0.00,,---,0.00,VWS V14.01,2013-09-15 16:17:00,
2013-09-15 09:22:00,60.1,53.9,29.44,West,281,5.8,6.3,80,0.00,,---,0.00,VWS V14.01,2013-09-15 16:22:00,
2013-09-15 09:27:00,60.1,53.9,29.44,WNW,286,5.4,5.8,80,0.00,,---,0.00,VWS V14.01,2013-09-15 16:27:00,
2013-09-15 09:32:00,59.7,53.5,29.44,WNW,294,5.4,6.3,80,0.00,,---,0.00,VWS V14.01,2013-09-15 16:32:00,
2013-09-15 09:37:00,59.9,53.7,29.44,West,273,3.1,3.1,80,0.00,,---,0.00,VWS V14.01,2013-09-15 16:37:00,
2013-09-15 09:42:00,59.9,53.7,29.44,WNW,285,5.4,5.4,80,0.00,,---,0.00,VWS V14.01,2013-09-15 16:42:00,
2013-09-15 09:47:00,59.5,53.0,29.47,WNW,290,4.0,4.0,79,0.00,,---,0.00,VWS V14.01,2013-09-15 16:47:00,
2013-09-15 09:52:00,59.5,53.0,29.47,West,276,5.8,7.6,79,0.00,,---,0.00,VWS V14.01,2013-09-15 16:52:00,
2013-09-15 09:57:00,59.9,53.4,29.47,WSW,255,4.0,4.0,79,0.00,,---,0.00,VWS V14.01,2013-09-15 16:57:00,
2013-09-15 10:02:00,60.3,53.7,29.47,West,273,5.4,5.4,79,0.00,,---,0.00,VWS V14.01,2013-09-15 17:02:00,
2013-09-15 10:08:00,59.7,53.2,29.47,WSW,253,8.1,8.1,79,0.00,,---,0.00,VWS V14.01,2013-09-15 17:08:00,
2013-09-15 10:13:00,59.9,53.4,29.47,WNW,293,8.7,8.7,79,0.00,,---,0.00,VWS V14.01,2013-09-15 17:13:00,
2013-09-15 10:18:00,59.7,52.9,29.47,WNW,284,6.3,6.3,78,0.00,,---,0.00,VWS V14.01,2013-09-15 17:18:00,
2013-09-15 10:23:00,59.7,52.9,29.47,West,265,6.3,6.3,78,0.00,,---,0.00,VWS V14.01,2013-09-15 17:23:00,
2013-09-15 10:28:00,59.7,52.9,29.47,WSW,245,5.8,5.8,78,0.00,,---,0.00,VWS V14.01,2013-09-15 17:28:00,
2013-09-15 10:33:00,60.6,53.7,29.47,WNW,290,5.8,6.3,78,0.00,,---,0.00,VWS V14.01,2013-09-15 17:33:00,
2013-09-15 10:38:00,60.6,53.7,29.47,WSW,249,5.4,5.4,78,0.00,,---,0.00,VWS V14.01,2013-09-15 17:38:00,
2013-09-15 10:43:00,60.1,52.9,29.47,WNW,290,5.4,6.3,77,0.00,,---,0.00,VWS V14.01,2013-09-15 17:43:00,
2013-09-15 10:48:00,60.3,53.0,29.47,West,260,5.4,6.3,77,0.00,,---,0.00,VWS V14.01,2013-09-15 17:48:00,
2013-09-15 10:53:00,60.6,53.4,29.47,West,268,5.8,5.8,77,0.00,,---,0.00,VWS V14.01,2013-09-15 17:53:00,
2013-09-15 10:58:00,60.6,53.0,29.47,West,276,8.7,8.7,76,0.00,,---,0.00,VWS V14.01,2013-09-15 17:58:00,
2013-09-15 11:03:00,61.0,53.0,29.47,WNW,283,6.7,6.7,75,0.00,,---,0.00,VWS V14.01,2013-09-15 18:03:00,
2013-09-15 11:08:00,60.4,51.8,29.47,WSW,256,8.3,8.3,73,0.00,,---,0.00,VWS V14.01,2013-09-15 18:08:00,
2013-09-15 11:13:00,60.4,51.8,29.47,WSW,250,5.4,6.3,73,0.00,,---,0.00,VWS V14.01,2013-09-15 18:13:00,
2013-09-15 11:18:00,61.2,52.1,29.47,West,273,8.1,8.1,72,0.00,,---,0.00,VWS V14.01,2013-09-15 18:18:00,
2013-09-15 11:23:00,61.5,51.7,29.47,West,261,5.4,9.2,70,0.00,,---,0.00,VWS V14.01,2013-09-15 18:23:00,
2013-09-15 11:28:00,62.1,52.2,29.47,West,278,5.8,8.1,70,0.00,,---,0.00,VWS V14.01,2013-09-15 18:28:00,
2013-09-15 11:33:00,62.4,51.7,29.47,WNW,290,8.7,8.7,68,0.00,,---,0.00,VWS V14.01,2013-09-15 18:33:00,
2013-09-15 11:38:00,62.8,50.4,29.47,West,274,8.7,8.7,64,0.00,,---,0.00,VWS V14.01,2013-09-15 18:38:00,
2013-09-15 11:43:00,62.8,46.9,29.47,West,274,8.3,8.7,56,0.00,,---,0.00,VWS V14.01,2013-09-15 18:43:00,
2013-09-15 11:48:00,62.8,46.9,29.47,WNW,289,10.1,10.1,56,0.00,,---,0.00,VWS V14.01,2013-09-15 18:48:00,
2013-09-15 11:53:00,63.9,42.7,29.47,WNW,285,7.6,7.6,46,0.00,,---,0.00,VWS V14.01,2013-09-15 18:53:00,
2013-09-15 11:58:00,64.6,43.4,29.47,WSW,257,8.1,8.1,46,0.00,,---,0.00,VWS V14.01,2013-09-15 18:58:00,
2013-09-15 12:03:00,64.0,42.3,29.47,WSW,246,10.1,10.5,45,0.00,,---,0.00,VWS V14.01,2013-09-15 19:03:00,
2013-09-15 12:08:00,64.6,43.4,29.47,WSW,244,5.8,5.8,46,0.00,,---,0.00,VWS V14.01,2013-09-15 19:08:00,
2013-09-15 12:13:00,64.6,43.4,29.47,West,271,7.6,8.3,46,0.00,,---,0.00,VWS V14.01,2013-09-15 19:13:00,
2013-09-15 12:18:00,65.8,42.7,29.47,West,275,8.7,10.5,43,0.00,,---,0.00,VWS V14.01,2013-09-15 19:18:00,
2013-09-15 12:23:00,67.1,38.6,29.47,West,267,7.6,7.6,35,0.00,,---,0.00,VWS V14.01,2013-09-15 19:23:00,
2013-09-15 12:28:00,67.3,38.7,29.47,West,273,10.5,10.5,35,0.00,,---,0.00,VWS V14.01,2013-09-15 19:28:00,
2013-09-15 12:33:00,66.0,42.3,29.47,West,276,10.1,10.1,42,0.00,,---,0.00,VWS V14.01,2013-09-15 19:33:00,
2013-09-15 12:38:00,66.4,40.7,29.47,West,270,9.6,9.6,39,0.00,,---,0.00,VWS V14.01,2013-09-15 19:38:00,
2013-09-15 12:43:00,66.9,39.1,29.47,WSW,256,8.7,8.7,36,0.00,,---,0.00,VWS V14.01,2013-09-15 19:43:00,
2013-09-15 12:48:00,66.9,38.4,29.47,West,280,8.3,8.3,35,0.00,,---,0.00,VWS V14.01,2013-09-15 19:48:00,
2013-09-15 12:53:00,66.9,38.4,29.47,West,278,7.6,7.6,35,0.00,,---,0.00,VWS V14.01,2013-09-15 19:53:00,
2013-09-15 12:58:00,68.0,38.6,29.47,WSW,251,5.4,5.4,34,0.00,,---,0.00,VWS V14.01,2013-09-15 19:58:00,
2013-09-15 13:03:00,67.5,39.6,29.50,WNW,297,5.4,5.4,36,0.00,,---,0.00,VWS V14.01,2013-09-15 20:03:00,
2013-09-15 13:08:00,68.2,38.0,29.50,WNW,288,6.3,6.3,33,0.00,,---,0.00,VWS V14.01,2013-09-15 20:08:00,
2013-09-15 13:13:00,68.0,37.1,29.50,West,271,8.1,8.7,32,0.00,,---,0.00,VWS V14.01,2013-09-15 20:13:00,
2013-09-15 13:18:00,68.0,37.1,29.50,WNW,290,8.1,8.1,32,0.00,,---,0.00,VWS V14.01,2013-09-15 20:18:00,
2013-09-15 13:23:00,69.4,37.5,29.50,West,265,8.7,8.7,31,0.00,,---,0.00,VWS V14.01,2013-09-15 20:23:00,
2013-09-15 13:28:00,69.6,36.0,29.50,WNW,293,6.3,6.3,29,0.00,,---,0.00,VWS V14.01,2013-09-15 20:28:00,
2013-09-15 13:33:00,66.9,37.7,29.50,SW,223,5.8,5.8,34,0.00,,---,0.00,VWS V14.01,2013-09-15 20:33:00,
2013-09-15 13:38:00,66.2,39.2,29.50,SW,229,7.6,7.6,37,0.00,,---,0.00,VWS V14.01,2013-09-15 20:38:00,
2013-09-15 13:43:00,66.9,37.7,29.50,WSW,242,3.6,3.6,34,0.00,,---,0.00,VWS V14.01,2013-09-15 20:43:00,
2013-09-15 13:48:00,68.4,38.2,29.50,WSW,255,7.2,7.2,33,0.00,,---,0.00,VWS V14.01,2013-09-15 20:48:00,
2013-09-15 13:53:00,67.6,38.3,29.50,West,280,6.3,6.3,34,0.00,,---,0.00,VWS V14.01,2013-09-15 20:53:00,
2013-09-15 13:58:00,67.6,38.3,29.50,SW,225,6.3,6.3,34,0.00,,---,0.00,VWS V14.01,2013-09-15 20:58:00,
2013-09-15 14:03:00,65.8,39.5,29.50,WSW,250,7.6,7.6,38,0.00,,---,0.00,VWS V14.01,2013-09-15 21:03:00,
2013-09-15 14:08:00,65.8,39.5,29.50,WNW,284,7.6,7.6,38,0.00,,---,0.00,VWS V14.01,2013-09-15 21:08:00,
2013-09-15 14:13:00,65.8,39.5,29.50,WNW,284,7.2,7.2,38,0.00,,---,0.00,VWS V14.01,2013-09-15 21:13:00,
2013-09-15 14:18:00,66.9,39.8,29.50,NW,312,5.4,5.4,37,0.00,,---,0.00,VWS V14.01,2013-09-15 21:18:00,
2013-09-15 14:23:00,66.9,39.8,29.50,WSW,254,5.8,6.3,37,0.00,,---,0.00,VWS V14.01,2013-09-15 21:23:00,
2013-09-15 14:28:00,68.0,38.6,29.50,West,272,5.8,5.8,34,0.00,,---,0.00,VWS V14.01,2013-09-15 21:28:00,
2013-09-15 14:33:00,67.8,39.2,29.50,WNW,291,5.8,6.3,35,0.00,,---,0.00,VWS V14.01,2013-09-15 21:33:00,
2013-09-15 14:38:00,67.5,38.9,29.50,WNW,284,6.3,6.3,35,0.00,,---,0.00,VWS V14.01,2013-09-15 21:38:00,
2013-09-15 14:43:00,66.7,39.7,29.50,WNW,285,8.7,8.7,37,0.00,,---,0.00,VWS V14.01,2013-09-15 21:43:00,
2013-09-15 14:48:00,66.7,39.7,29.50,WSW,240,5.4,5.8,37,0.00,,---,0.00,VWS V14.01,2013-09-15 21:48:00,
2013-09-15 14:53:00,64.4,42.0,29.50,WSW,256,6.7,7.6,44,0.00,,---,0.00,VWS V14.01,2013-09-15 21:53:00,
2013-09-15 14:58:00,64.4,42.0,29.50,West,274,2.2,4.0,44,0.00,,---,0.00,VWS V14.01,2013-09-15 21:58:00,
2013-09-15 15:03:00,64.8,41.2,29.50,West,259,2.7,2.7,42,0.00,,---,0.00,VWS V14.01,2013-09-15 22:03:00,
2013-09-15 15:08:00,65.1,41.5,29.50,West,262,6.3,6.3,42,0.00,,---,0.00,VWS V14.01,2013-09-15 22:08:00,
2013-09-15 15:13:00,65.3,40.4,29.50,WNW,291,7.2,7.6,40,0.00,,---,0.00,VWS V14.01,2013-09-15 22:13:00,
2013-09-15 15:18:00,66.2,39.2,29.50,West,280,7.6,7.6,37,0.00,,---,0.00,VWS V14.01,2013-09-15 22:18:00,
2013-09-15 15:23:00,66.2,39.2,29.50,SW,230,6.3,6.3,37,0.00,,---,0.00,VWS V14.01,2013-09-15 22:23:00,
2013-09-15 15:28:00,66.4,38.6,29.50,WSW,247,5.4,5.4,36,0.00,,---,0.00,VWS V14.01,2013-09-15 22:28:00,
2013-09-15 15:33:00,66.9,39.1,29.50,WSW,248,4.0,4.0,36,0.00,,---,0.00,VWS V14.01,2013-09-15 22:33:00,
2013-09-15 15:38:00,66.9,39.1,29.50,WSW,251,6.3,6.3,36,0.00,,---,0.00,VWS V14.01,2013-09-15 22:38:00,
2013-09-15 15:43:00,65.7,38.0,29.50,West,279,8.7,8.7,36,0.00,,---,0.00,VWS V14.01,2013-09-15 22:43:00,
2013-09-15 15:48:00,66.0,39.0,29.50,WSW,240,7.6,7.6,37,0.00,,---,0.00,VWS V14.01,2013-09-15 22:48:00,
2013-09-15 15:53:00,66.4,38.6,29.50,WNW,287,6.3,7.6,36,0.00,,---,0.00,VWS V14.01,2013-09-15 22:53:00,
2013-09-15 15:58:00,67.8,38.5,29.50,WSW,258,8.3,8.3,34,0.00,,---,0.00,VWS V14.01,2013-09-15 22:58:00,
2013-09-15 16:03:00,67.3,37.2,29.50,West,261,10.1,10.1,33,0.00,,---,0.00,VWS V14.01,2013-09-15 23:03:00,
2013-09-15 16:08:00,67.1,37.1,29.50,WNW,284,8.3,11.9,33,0.00,,---,0.00,VWS V14.01,2013-09-15 23:08:00,
2013-09-15 16:13:00,66.9,37.7,29.50,WSW,239,6.3,6.3,34,0.00,,---,0.00,VWS V14.01,2013-09-15 23:13:00,
2013-09-15 16:18:00,66.4,37.2,29.50,WNW,288,8.1,8.1,34,0.00,,---,0.00,VWS V14.01,2013-09-15 23:18:00,
2013-09-15 16:24:00,66.6,37.3,29.50,WNW,284,8.1,8.1,34,0.00,,---,0.00,VWS V14.01,2013-09-15 23:24:00,
2013-09-15 16:29:00,66.7,37.5,29.50,WNW,297,5.4,5.4,34,0.00,,---,0.00,VWS V14.01,2013-09-15 23:29:00,
2013-09-15 16:34:00,65.3,40.4,29.50,WNW,293,8.1,8.1,40,0.00,,---,0.00,VWS V14.01,2013-09-15 23:34:00,
2013-09-15 16:39:00,65.1,41.5,29.50,WNW,288,5.8,7.6,42,0.00,,---,0.00,VWS V14.01,2013-09-15 23:39:00,
2013-09-15 16:44:00,65.1,41.5,29.50,West,277,5.4,7.6,42,0.00,,---,0.00,VWS V14.01,2013-09-15 23:44:00,
2013-09-15 16:49:00,65.1,41.5,29.50,WNW,291,8.1,8.1,42,0.00,,---,0.00,VWS V14.01,2013-09-15 23:49:00,
2013-09-15 16:54:00,66.0,39.7,29.50,West,274,5.4,5.4,38,0.00,,---,0.00,VWS V14.01,2013-09-15 23:54:00,
2013-09-15 16:59:00,65.7,41.3,29.50,WNW,291,6.3,6.3,41,0.00,,---,0.00,VWS V14.01,2013-09-15 23:59:00,
2013-09-15 17:04:00,65.3,42.2,29.50,WNW,302,3.1,3.1,43,0.00,,---,0.00,VWS V14.01,2013-09-16 00:04:00,
2013-09-15 17:09:00,65.3,42.2,29.50,WNW,287,0.0,0.0,43,0.00,,---,0.00,VWS V14.01,2013-09-16 00:09:00,
2013-09-15 17:14:00,65.3,42.2,29.50,West,273,6.3,6.3,43,0.00,,---,0.00,VWS V14.01,2013-09-16 00:14:00,
2013-09-15 17:19:00,66.2,41.2,29.50,WNW,296,6.3,6.3,40,0.00,,---,0.00,VWS V14.01,2013-09-16 00:19:00,
2013-09-15 17:24:00,66.2,40.5,29.50,WNW,294,7.6,7.6,39,0.00,,---,0.00,VWS V14.01,2013-09-16 00:24:00,
2013-09-15 17:29:00,65.5,42.4,29.50,WNW,302,4.0,5.4,43,0.00,,---,0.00,VWS V14.01,2013-09-16 00:29:00,
2013-09-15 17:34:00,64.8,42.4,29.50,NW,308,5.4,5.4,44,0.00,,---,0.00,VWS V14.01,2013-09-16 00:34:00,
2013-09-15 17:39:00,64.8,42.4,29.50,WNW,299,5.4,5.4,44,0.00,,---,0.00,VWS V14.01,2013-09-16 00:39:00,
2013-09-15 17:44:00,63.7,42.5,29.50,WNW,300,5.4,5.4,46,0.00,,---,0.00,VWS V14.01,2013-09-16 00:44:00,
2013-09-15 17:49:00,63.5,42.4,29.50,WNW,301,5.4,5.4,46,0.00,,---,0.00,VWS V14.01,2013-09-16 00:49:00,
2013-09-15 17:54:00,63.0,43.0,29.50,WNW,301,5.8,5.8,48,0.00,,---,0.00,VWS V14.01,2013-09-16 00:54:00,
2013-09-15 17:59:00,63.0,43.0,29.50,NW,308,3.6,3.6,48,0.00,,---,0.00,VWS V14.01,2013-09-16 00:59:00,
2013-09-15 18:04:00,62.4,43.5,29.50,NW,308,3.6,3.6,50,0.00,,---,0.00,VWS V14.01,2013-09-16 01:04:00,
2013-09-15 18:09:00,62.4,44.1,29.50,NW,306,0.0,0.0,51,0.00,,---,0.00,VWS V14.01,2013-09-16 01:09:00,
2013-09-15 18:14:00,62.4,44.6,29.50,NW,324,0.0,3.6,52,0.00,,---,0.00,VWS V14.01,2013-09-16 01:14:00,
2013-09-15 18:19:00,62.8,44.9,29.50,WNW,301,4.0,4.0,52,0.00,,---,0.00,VWS V14.01,2013-09-16 01:19:00,
2013-09-15 18:24:00,62.8,44.9,29.50,WNW,296,0.0,0.0,52,0.00,,---,0.00,VWS V14.01,2013-09-16 01:24:00,
2013-09-15 18:29:00,62.8,44.9,29.50,WNW,296,0.0,0.0,52,0.00,,---,0.00,VWS V14.01,2013-09-16 01:29:00,
2013-09-15 18:34:00,62.2,44.9,29.53,NW,314,0.0,0.0,53,0.00,,---,0.00,VWS V14.01,2013-09-16 01:34:00,
2013-09-15 18:39:00,62.2,44.9,29.53,WNW,298,0.0,0.0,53,0.00,,---,0.00,VWS V14.01,2013-09-16 01:39:00,
2013-09-15 18:44:00,62.1,44.8,29.53,WNW,297,3.6,3.6,53,0.00,,---,0.00,VWS V14.01,2013-09-16 01:44:00,
2013-09-15 18:49:00,62.1,44.8,29.53,WNW,303,2.7,2.7,53,0.00,,---,0.00,VWS V14.01,2013-09-16 01:49:00,
2013-09-15 18:54:00,62.1,46.2,29.53,NW,320,0.0,0.0,56,0.00,,---,0.00,VWS V14.01,2013-09-16 01:54:00,
2013-09-15 18:59:00,62.2,46.4,29.53,NW,318,0.0,0.0,56,0.00,,---,0.00,VWS V14.01,2013-09-16 01:59:00,
2013-09-15 19:04:00,62.2,45.4,29.53,NW,312,4.0,4.0,54,0.00,,---,0.00,VWS V14.01,2013-09-16 02:04:00,
2013-09-15 19:09:00,62.2,42.3,29.53,NW,307,0.0,0.0,48,0.00,,---,0.00,VWS V14.01,2013-09-16 02:09:00,
2013-09-15 19:14:00,62.2,41.8,29.53,NW,325,4.0,4.0,47,0.00,,---,0.00,VWS V14.01,2013-09-16 02:14:00,
2013-09-15 19:19:00,62.2,41.8,29.53,NW,324,4.9,4.9,47,0.00,,---,0.00,VWS V14.01,2013-09-16 02:19:00,
2013-09-15 19:24:00,61.7,39.0,29.53,NW,324,4.0,4.0,43,0.00,,---,0.00,VWS V14.01,2013-09-16 02:24:00,
2013-09-15 19:29:00,61.7,39.6,29.53,NNW,332,4.0,4.0,44,0.00,,---,0.00,VWS V14.01,2013-09-16 02:29:00,
2013-09-15 19:34:00,61.5,39.4,29.53,NNW,337,6.3,6.3,44,0.00,,---,0.00,VWS V14.01,2013-09-16 02:34:00,
2013-09-15 19:39:00,61.7,39.6,29.53,North,9,4.0,4.0,44,0.00,,---,0.00,VWS V14.01,2013-09-16 02:39:00,
2013-09-15 19:44:00,61.3,38.7,29.53,North,6,3.1,3.1,43,0.00,,---,0.00,VWS V14.01,2013-09-16 02:44:00,
2013-09-15 19:49:00,60.8,38.8,29.53,NNW,332,0.0,0.0,44,0.00,,---,0.00,VWS V14.01,2013-09-16 02:49:00,
2013-09-15 19:54:00,60.6,38.6,29.53,NNW,332,0.0,0.0,44,0.00,,---,0.00,VWS V14.01,2013-09-16 02:54:00,
2013-09-15 19:59:00,60.6,39.2,29.53,NNW,332,0.0,0.0,45,0.00,,---,0.00,VWS V14.01,2013-09-16 02:59:00,
2013-09-15 20:04:00,60.6,39.2,29.53,NW,304,0.0,0.0,45,0.00,,---,0.00,VWS V14.01,2013-09-16 03:04:00,
2013-09-15 20:09:00,60.6,40.3,29.53,WNW,284,0.0,0.0,47,0.00,,---,0.00,VWS V14.01,2013-09-16 03:09:00,
2013-09-15 20:14:00,60.6,40.3,29.53,WNW,284,0.0,0.0,47,0.00,,---,0.00,VWS V14.01,2013-09-16 03:14:00,
2013-09-15 20:19:00,60.3,43.6,29.53,WNW,284,0.0,0.0,54,0.00,,---,0.00,VWS V14.01,2013-09-16 03:19:00,
2013-09-15 20:24:00,60.3,43.6,29.53,WNW,284,0.0,0.0,54,0.00,,---,0.00,VWS V14.01,2013-09-16 03:24:00,
2013-09-15 20:29:00,60.1,44.8,29.53,WNW,284,0.0,0.0,57,0.00,,---,0.00,VWS V14.01,2013-09-16 03:29:00,
2013-09-15 20:34:00,60.1,44.8,29.56,WNW,284,0.0,0.0,57,0.00,,---,0.00,VWS V14.01,2013-09-16 03:34:00,
2013-09-15 20:39:00,60.1,43.4,29.56,WNW,284,0.0,0.0,54,0.00,,---,0.00,VWS V14.01,2013-09-16 03:39:00,
2013-09-15 20:44:00,60.1,43.9,29.56,WNW,284,0.0,0.0,55,0.00,,---,0.00,VWS V14.01,2013-09-16 03:44:00,
2013-09-15 20:49:00,60.1,43.9,29.56,WNW,284,0.0,0.0,55,0.00,,---,0.00,VWS V14.01,2013-09-16 03:49:00,
2013-09-15 20:54:00,59.9,42.2,29.56,WNW,284,0.0,0.0,52,0.00,,---,0.00,VWS V14.01,2013-09-16 03:54:00,
2013-09-15 20:59:00,60.1,42.4,29.56,WNW,284,0.0,0.0,52,0.00,,---,0.00,VWS V14.01,2013-09-16 03:59:00,
2013-09-15 21:01:00,60.1,42.4,29.56,WNW,284,0.0,0.0,52,0.00,,---,0.00,VWS V14.01,2013-09-16 04:01:00,
2013-09-15 21:06:00,60.1,42.4,29.56,WSW,240,2.7,2.7,52,0.00,,---,0.00,VWS V14.01,2013-09-16 04:06:00,
2013-09-15 21:11:00,60.3,44.0,29.56,WSW,240,2.7,2.7,55,0.00,,---,0.00,VWS V14.01,2013-09-16 04:11:00,
2013-09-15 21:16:00,60.3,43.6,29.56,SW,222,2.7,2.7,54,0.00,,---,0.00,VWS V14.01,2013-09-16 04:16:00,
2013-09-15 21:21:00,60.3,43.1,29.56,SW,222,2.7,2.7,53,0.00,,---,0.00,VWS V14.01,2013-09-16 04:21:00,
2013-09-15 21:26:00,60.3,43.1,29.56,SW,222,2.7,2.7,53,0.00,,---,0.00,VWS V14.01,2013-09-16 04:26:00,
2013-09-15 21:31:00,60.3,43.1,29.56,SW,222,2.2,2.2,53,0.00,,---,0.00,VWS V14.01,2013-09-16 04:31:00,
2013-09-15 21:36:00,60.3,42.1,29.56,SW,222,2.7,2.7,51,0.00,,---,0.00,VWS V14.01,2013-09-16 04:36:00,
2013-09-15 21:41:00,60.1,42.9,29.56,SW,222,4.0,4.0,53,0.00,,---,0.00,VWS V14.01,2013-09-16 04:41:00,
2013-09-15 21:46:00,60.1,42.9,29.56,SW,230,4.9,6.3,53,0.00,,---,0.00,VWS V14.01,2013-09-16 04:46:00,
2013-09-15 21:51:00,59.7,45.4,29.56,SW,236,2.7,4.0,59,0.00,,---,0.00,VWS V14.01,2013-09-16 04:51:00,
2013-09-15 21:56:00,59.7,45.4,29.56,SW,236,3.6,3.6,59,0.00,,---,0.00,VWS V14.01,2013-09-16 04:56:00,
2013-09-15 22:01:00,59.7,47.1,29.56,SSW,213,3.1,3.1,63,0.00,,---,0.00,VWS V14.01,2013-09-16 05:01:00,
2013-09-15 22:06:00,59.5,48.6,29.56,WSW,243,4.0,4.0,67,0.00,,---,0.00,VWS V14.01,2013-09-16 05:06:00,
2013-09-15 22:11:00,59.5,48.6,29.56,WSW,244,3.6,3.6,67,0.00,,---,0.00,VWS V14.01,2013-09-16 05:11:00,
2013-09-15 22:16:00,59.4,46.8,29.56,NW,323,2.7,5.4,63,0.00,,---,0.00,VWS V14.01,2013-09-16 05:16:00,
2013-09-15 22:21:00,59.4,46.8,29.56,WSW,245,5.4,5.4,63,0.00,,---,0.00,VWS V14.01,2013-09-16 05:21:00,
2013-09-15 22:26:00,59.4,46.8,29.56,WNW,284,4.9,4.9,63,0.00,,---,0.00,VWS V14.01,2013-09-16 05:26:00,
2013-09-15 22:31:00,59.0,45.2,29.56,WNW,285,6.3,6.3,60,0.00,,---,0.00,VWS V14.01,2013-09-16 05:31:00,
2013-09-15 22:36:00,58.8,46.7,29.56,WNW,287,4.9,6.3,64,0.00,,---,0.00,VWS V14.01,2013-09-16 05:36:00,
2013-09-15 22:41:00,58.8,46.3,29.56,WNW,288,4.0,4.0,63,0.00,,---,0.00,VWS V14.01,2013-09-16 05:41:00,
2013-09-15 22:46:00,58.8,46.3,29.56,West,266,7.6,7.6,63,0.00,,---,0.00,VWS V14.01,2013-09-16 05:46:00,
2013-09-15 22:51:00,58.8,39.7,29.56,West,268,4.0,4.0,49,0.00,,---,0.00,VWS V14.01,2013-09-16 05:51:00,
2013-09-15 22:56:00,59.0,39.4,29.56,WSW,253,3.1,3.1,48,0.00,,---,0.00,VWS V14.01,2013-09-16 05:56:00,
2013-09-15 23:01:00,59.0,39.4,29.56,West,273,5.4,5.4,48,0.00,,---,0.00,VWS V14.01,2013-09-16 06:01:00,
2013-09-15 23:06:00,59.5,37.6,29.56,West,265,6.3,7.6,44,0.00,,---,0.00,VWS V14.01,2013-09-16 06:06:00,
2013-09-15 23:11:00,59.5,37.6,29.56,WNW,295,7.6,7.6,44,0.00,,---,0.00,VWS V14.01,2013-09-16 06:11:00,
2013-09-15 23:16:00,59.7,37.8,29.56,West,266,2.7,5.4,44,0.00,,---,0.00,VWS V14.01,2013-09-16 06:16:00,
2013-09-15 23:21:00,59.4,38.6,29.59,West,279,8.1,8.1,46,0.00,,---,0.00,VWS V14.01,2013-09-16 06:21:00,
2013-09-15 23:26:00,59.4,38.6,29.59,WNW,287,4.0,6.3,46,0.00,,---,0.00,VWS V14.01,2013-09-16 06:26:00,
2013-09-15 23:31:00,58.8,44.1,29.59,WSW,258,5.8,5.8,58,0.00,,---,0.00,VWS V14.01,2013-09-16 06:31:00,
2013-09-15 23:36:00,58.6,45.2,29.59,West,266,6.3,6.3,61,0.00,,---,0.00,VWS V14.01,2013-09-16 06:36:00,
2013-09-15 23:41:00,58.5,46.3,29.59,WSW,251,2.7,2.7,64,0.00,,---,0.00,VWS V14.01,2013-09-16 06:41:00,
2013-09-15 23:46:00,58.5,46.8,29.59,WSW,252,6.3,6.3,65,0.00,,---,0.00,VWS V14.01,2013-09-16 06:46:00,
2013-09-15 23:51:00,58.5,47.2,29.59,West,276,3.6,3.6,66,0.00,,---,0.00,VWS V14.01,2013-09-16 06:51:00,
2013-09-15 23:56:00,58.5,47.6,29.59,West,278,3.1,3.6,67,0.00,,---,0.00,VWS V14.01,2013-09-16 06:56:00,